"Period start","avg(HW err(1)/warn(2) (#))","avg(Visibility (m))","avg(Weather code (#))","avg(Precip intensity (mm/h))","min(HW err(1)/warn(2) (#))","max(HW err(1)/warn(2) (#))","std(HW err(1)/warn(2) (#))","med(HW err(1)/warn(2) (#))","min(Visibility (m))","max(Visibility (m))","std(Visibility (m))","med(Visibility (m))","min(Weather code (#))","max(Weather code (#))","std(Weather code (#))","med(Weather code (#))","min(Precip intensity (mm/h))","max(Precip intensity (mm/h))","std(Precip intensity (mm/h))","med(Precip intensity (mm/h))"
2016-08-06 00:00:00,2,42872,0,0.00,2,2,0,2,33614,50000,5954,43293,0,0,0,0,0.00,0.00,0.00,0.00
2016-08-06 00:10:00,2,38967,0,0.00,2,2,0,2,30177,50000,6130,37652,0,0,0,0,0.00,0.00,0.00,0.00
2016-08-06 00:20:00,2,36275,0,0.00,2,2,0,2,26701,48643,6616,35078,0,0,0,0,0.00,0.00,0.00,0.00
2016-08-06 00:30:00,2,37810,0,0.00,2,2,0,2,15877,50000,10243,40226,0,0,0,0,0.00,0.00,0.00,0.00
2016-08-06 00:40:00,2,37688,0,0.00,2,2,0,2,31185,46141,5399,35458,0,0,0,0,0.00,0.00,0.00,0.00
2016-08-06 00:50:00,2,34583,0,0.00,2,2,0,2,21159,50000,8535,30804,0,0,0,0,0.00,0.00,0.00,0.00
2016-08-06 01:00:00,2,35798,0,0.00,0,2,1,2,25254,47383,7899,34544,0,0,0,0,0.00,0.00,0.00,0.00
2016-08-06 01:10:00,2,32925,0,0.00,0,2,1,2,22694,50000,9027,30655,0,0,0,0,0.00,0.00,0.00,0.00
2016-08-06 01:20:00,1,37831,0,0.00,0,2,1,2,26633,50000,7971,36937,0,0,0,0,0.00,0.00,0.00,0.00
2016-08-06 01:30:00,1,38811,0,0.00,0,2,1,0,27141,49850,7187,37968,0,0,0,0,0.00,0.00,0.00,0.00
2016-08-06 01:40:00,0,41605,0,0.00,0,0,0,0,30956,50000,6687,41452,0,0,0,0,0.00,0.00,0.00,0.00
2016-08-06 01:50:00,0,34594,0,0.00,0,0,0,0,20008,50000,8870,34866,0,0,0,0,0.00,0.00,0.00,0.00
2016-08-06 02:00:00,0,31841,0,0.00,0,0,0,0,17093,44213,9716,35034,0,0,0,0,0.00,0.00,0.00,0.00
2016-08-06 02:10:00,0,35952,0,0.00,0,0,0,0,22183,48169,8922,37354,0,0,0,0,0.00,0.00,0.00,0.00
2016-08-06 02:20:00,0,38189,0,0.00,0,0,0,0,24503,49680,8720,39732,0,0,0,0,0.00,0.00,0.00,0.00
2016-08-06 02:30:00,0,38518,0,0.00,0,0,0,0,26427,50000,7689,37348,0,0,0,0,0.00,0.00,0.00,0.00
2016-08-06 02:40:00,0,44854,0,0.00,0,0,0,0,35927,50000,4509,46106,0,0,0,0,0.00,0.00,0.00,0.00
2016-08-06 02:50:00,0,44783,0,0.00,0,0,0,0,36287,50000,5284,47718,0,0,0,0,0.00,0.00,0.00,0.00
2016-08-06 03:00:00,0,41349,0,0.00,0,0,0,0,30212,50000,6290,40392,0,0,0,0,0.00,0.00,0.00,0.00
2016-08-06 03:10:00,0,45786,0,0.00,0,0,0,0,41443,50000,3418,45203,0,0,0,0,0.00,0.00,0.00,0.00
2016-08-06 03:20:00,0,42485,0,0.00,0,0,0,0,37575,50000,4211,41705,0,0,0,0,0.00,0.00,0.00,0.00
2016-08-06 03:30:00,0,44349,0,0.00,0,0,0,0,30167,50000,6741,47649,0,0,0,0,0.00,0.00,0.00,0.00
2016-08-06 03:40:00,0,48275,0,0.00,0,0,0,0,44091,50000,2215,50000,0,0,0,0,0.00,0.00,0.00,0.00
2016-08-06 03:50:00,0,46237,0,0.00,0,0,0,0,35303,50000,5480,50000,0,0,0,0,0.00,0.00,0.00,0.00
2016-08-06 04:00:00,0,44448,0,0.00,0,0,0,0,36933,50000,4786,44742,0,0,0,0,0.00,0.00,0.00,0.00
2016-08-06 04:10:00,0,42725,0,0.00,0,0,0,0,36591,50000,3927,43459,0,0,0,0,0.00,0.00,0.00,0.00
2016-08-06 04:20:00,0,43835,0,0.00,0,0,0,0,38946,48528,2844,43565,0,0,0,0,0.00,0.00,0.00,0.00
2016-08-06 04:30:00,0,49054,0,0.00,0,0,0,0,47005,50000,1016,49362,0,0,0,0,0.00,0.00,0.00,0.00
2016-08-06 04:40:00,0,47429,0,0.00,0,0,0,0,41656,50000,2985,48499,0,0,0,0,0.00,0.00,0.00,0.00
2016-08-06 04:50:00,0,47641,0,0.00,0,0,0,0,43536,50000,2510,48820,0,0,0,0,0.00,0.00,0.00,0.00
2016-08-06 05:00:00,0,49382,0,0.00,0,0,0,0,46844,50000,1000,50000,0,0,0,0,0.00,0.00,0.00,0.00
2016-08-06 05:10:00,0,49172,0,0.00,0,0,0,0,45568,50000,1640,50000,0,0,0,0,0.00,0.00,0.00,0.00
2016-08-06 05:20:00,0,48402,0,0.00,0,0,0,0,44476,50000,1973,49676,0,0,0,0,0.00,0.00,0.00,0.00
2016-08-06 05:30:00,0,46710,0,0.00,0,0,0,0,36475,50000,4378,48288,0,0,0,0,0.00,0.00,0.00,0.00
2016-08-06 05:40:00,0,46052,0,0.00,0,0,0,0,40923,50000,3473,46276,0,0,0,0,0.00,0.00,0.00,0.00
2016-08-06 05:50:00,0,48908,0,0.00,0,0,0,0,44348,50000,1995,50000,0,0,0,0,0.00,0.00,0.00,0.00
2016-08-06 06:00:00,0,44413,0,0.00,0,0,0,0,34063,50000,5697,45494,0,0,0,0,0.00,0.00,0.00,0.00
2016-08-06 06:10:00,0,45432,0,0.00,0,0,0,0,35855,50000,5405,48770,0,0,0,0,0.00,0.00,0.00,0.00
2016-08-06 06:20:00,0,46846,0,0.00,0,0,0,0,41516,50000,3152,47684,0,0,0,0,0.00,0.00,0.00,0.00
2016-08-06 06:30:00,0,43615,0,0.00,0,0,0,0,31954,50000,5491,44340,0,0,0,0,0.00,0.00,0.00,0.00
2016-08-06 06:40:00,0,42475,0,0.00,0,0,0,0,34564,50000,4717,41838,0,0,0,0,0.00,0.00,0.00,0.00
2016-08-06 06:50:00,0,45707,0,0.00,0,0,0,0,34535,50000,4577,47014,0,0,0,0,0.00,0.00,0.00,0.00
2016-08-06 07:00:00,0,43096,0,0.00,0,0,0,0,37833,49181,3602,42388,0,0,0,0,0.00,0.00,0.00,0.00
2016-08-06 07:10:00,0,48150,0,0.00,0,0,0,0,42566,50000,2300,49222,0,0,0,0,0.00,0.00,0.00,0.00
2016-08-06 07:20:00,0,42538,0,0.00,0,0,0,0,27792,50000,7612,43748,0,0,0,0,0.00,0.00,0.00,0.00
2016-08-06 07:30:00,0,45334,0,0.00,0,0,0,0,39127,48255,3105,46939,0,0,0,0,0.00,0.00,0.00,0.00
2016-08-06 07:40:00,0,44033,0,0.00,0,0,0,0,30852,50000,7221,47500,0,0,0,0,0.00,0.00,0.00,0.00
2016-08-06 07:50:00,0,46407,0,0.00,0,0,0,0,41566,50000,2981,46281,0,0,0,0,0.00,0.00,0.00,0.00
2016-08-06 08:00:00,0,45624,0,0.00,0,0,0,0,40472,50000,3020,45836,0,0,0,0,0.00,0.00,0.00,0.00
2016-08-06 08:10:00,0,47484,0,0.00,0,0,0,0,44122,50000,1800,47182,0,0,0,0,0.00,0.00,0.00,0.00
2016-08-06 08:20:00,0,45933,0,0.00,0,0,0,0,35475,50000,4615,47613,0,0,0,0,0.00,0.00,0.00,0.00
2016-08-06 08:30:00,0,48165,0,0.00,0,0,0,0,42771,50000,2720,50000,0,0,0,0,0.00,0.00,0.00,0.00
2016-08-06 08:40:00,0,47252,0,0.00,0,0,0,0,44159,50000,2469,47565,0,0,0,0,0.00,0.00,0.00,0.00
2016-08-06 08:50:00,0,46847,0,0.00,0,0,0,0,41904,50000,3235,48034,0,0,0,0,0.00,0.00,0.00,0.00
2016-08-06 09:00:00,0,47230,0,0.00,0,0,0,0,41761,50000,2730,48359,0,0,0,0,0.00,0.00,0.00,0.00
2016-08-06 09:10:00,0,47389,0,0.00,0,0,0,0,43623,50000,2259,47730,0,0,0,0,0.00,0.00,0.00,0.00
2016-08-06 09:20:00,0,49408,0,0.00,0,0,0,0,46567,50000,1066,50000,0,0,0,0,0.00,0.00,0.00,0.00
2016-08-06 09:30:00,0,49843,0,0.00,0,0,0,0,48939,50000,337,50000,0,0,0,0,0.00,0.00,0.00,0.00
2016-08-06 09:40:00,0,49572,0,0.00,0,0,0,0,46875,50000,955,50000,0,0,0,0,0.00,0.00,0.00,0.00
2016-08-06 09:50:00,0,49454,0,0.00,0,0,0,0,47281,50000,910,50000,0,0,0,0,0.00,0.00,0.00,0.00
2016-08-06 10:00:00,0,49318,0,0.00,0,0,0,0,44270,50000,1697,50000,0,0,0,0,0.00,0.00,0.00,0.00
2016-08-06 10:10:00,0,50000,0,0.00,0,0,0,0,50000,50000,0,50000,0,0,0,0,0.00,0.00,0.00,0.00
2016-08-06 10:20:00,0,49485,0,0.00,0,0,0,0,46248,50000,1156,50000,0,0,0,0,0.00,0.00,0.00,0.00
2016-08-06 10:30:00,0,49422,0,0.00,0,0,0,0,47971,50000,750,50000,0,0,0,0,0.00,0.00,0.00,0.00
2016-08-06 10:40:00,0,38555,17,0.56,0,0,0,0,11010,50000,17488,50000,0,61,27,0,0.00,4.00,1.19,0.00
2016-08-06 10:50:00,0,43628,39,0.04,0,0,0,0,21646,50000,9704,50000,0,61,26,52,0.00,0.10,0.05,0.00
2016-08-06 11:00:00,0,49963,0,0.00,0,0,0,0,49627,50000,112,50000,0,0,0,0,0.00,0.00,0.00,0.00
2016-08-06 11:10:00,0,50000,0,0.00,0,0,0,0,50000,50000,0,50000,0,0,0,0,0.00,0.00,0.00,0.00
2016-08-06 11:20:00,0,49743,0,0.00,0,0,0,0,48738,50000,449,50000,0,0,0,0,0.00,0.00,0.00,0.00
2016-08-06 11:30:00,0,49729,0,0.00,0,0,0,0,47825,50000,655,50000,0,0,0,0,0.00,0.00,0.00,0.00
2016-08-06 11:40:00,0,48903,0,0.00,0,0,0,0,43055,50000,2242,50000,0,0,0,0,0.00,0.00,0.00,0.00
2016-08-06 11:50:00,0,49788,0,0.00,0,0,0,0,48390,50000,490,50000,0,0,0,0,0.00,0.00,0.00,0.00
2016-08-06 12:00:00,0,49516,0,0.00,0,0,0,0,45165,50000,1450,50000,0,0,0,0,0.00,0.00,0.00,0.00
2016-08-06 12:10:00,0,49111,0,0.00,0,0,0,0,43014,50000,2065,50000,0,0,0,0,0.00,0.00,0.00,0.00
2016-08-06 12:20:00,0,50000,0,0.00,0,0,0,0,50000,50000,0,50000,0,0,0,0,0.00,0.00,0.00,0.00
2016-08-06 12:30:00,0,50000,0,0.00,0,0,0,0,50000,50000,0,50000,0,0,0,0,0.00,0.00,0.00,0.00
2016-08-06 12:40:00,0,49760,0,0.00,0,0,0,0,48438,50000,507,50000,0,0,0,0,0.00,0.00,0.00,0.00
2016-08-06 12:50:00,0,50000,0,0.00,0,0,0,0,50000,50000,0,50000,0,0,0,0,0.00,0.00,0.00,0.00
2016-08-06 13:00:00,0,49896,0,0.00,0,0,0,0,49180,50000,248,50000,0,0,0,0,0.00,0.00,0.00,0.00
2016-08-06 13:10:00,0,50000,0,0.00,0,0,0,0,50000,50000,0,50000,0,0,0,0,0.00,0.00,0.00,0.00
2016-08-06 13:20:00,0,49905,0,0.00,0,0,0,0,49047,50000,286,50000,0,0,0,0,0.00,0.00,0.00,0.00
2016-08-06 13:30:00,0,49985,0,0.00,0,0,0,0,49846,50000,46,50000,0,0,0,0,0.00,0.00,0.00,0.00
2016-08-06 13:40:00,0,50000,0,0.00,0,0,0,0,50000,50000,0,50000,0,0,0,0,0.00,0.00,0.00,0.00
2016-08-06 13:50:00,0,49808,0,0.00,0,0,0,0,48875,50000,390,50000,0,0,0,0,0.00,0.00,0.00,0.00
2016-08-06 14:00:00,0,47095,17,0.01,0,0,0,0,36994,50000,5069,50000,0,61,27,0,0.00,0.10,0.03,0.00
2016-08-06 14:10:00,0,50000,5,0.00,0,0,0,0,50000,50000,0,50000,0,51,15,0,0.00,0.00,0.00,0.00
2016-08-06 14:20:00,0,49940,0,0.00,0,0,0,0,49624,50000,125,50000,0,0,0,0,0.00,0.00,0.00,0.00
2016-08-06 14:30:00,0,49801,0,0.00,0,0,0,0,48006,50000,598,50000,0,0,0,0,0.00,0.00,0.00,0.00
2016-08-06 14:40:00,0,50000,0,0.00,0,0,0,0,50000,50000,0,50000,0,0,0,0,0.00,0.00,0.00,0.00
2016-08-06 14:50:00,0,50000,0,0.00,0,0,0,0,50000,50000,0,50000,0,0,0,0,0.00,0.00,0.00,0.00
2016-08-06 15:00:00,0,50000,0,0.00,0,0,0,0,50000,50000,0,50000,0,0,0,0,0.00,0.00,0.00,0.00
2016-08-06 15:10:00,0,49701,0,0.00,0,0,0,0,47176,50000,843,50000,0,0,0,0,0.00,0.00,0.00,0.00
2016-08-06 15:20:00,0,50000,0,0.00,0,0,0,0,50000,50000,0,50000,0,0,0,0,0.00,0.00,0.00,0.00
2016-08-06 15:30:00,0,50000,0,0.00,0,0,0,0,50000,50000,0,50000,0,0,0,0,0.00,0.00,0.00,0.00
2016-08-06 15:40:00,0,49730,0,0.00,0,0,0,0,47498,50000,746,50000,0,0,0,0,0.00,0.00,0.00,0.00
2016-08-06 15:50:00,0,49162,0,0.00,0,0,0,0,42960,50000,2106,50000,0,0,0,0,0.00,0.00,0.00,0.00
2016-08-06 16:00:00,0,49455,0,0.00,0,0,0,0,47676,50000,877,50000,0,0,0,0,0.00,0.00,0.00,0.00
2016-08-06 16:10:00,0,50000,0,0.00,0,0,0,0,50000,50000,0,50000,0,0,0,0,0.00,0.00,0.00,0.00
2016-08-06 16:20:00,0,49188,0,0.00,0,0,0,0,44415,50000,1652,50000,0,0,0,0,0.00,0.00,0.00,0.00
2016-08-06 16:30:00,0,49949,0,0.00,0,0,0,0,49487,50000,154,50000,0,0,0,0,0.00,0.00,0.00,0.00
2016-08-06 16:40:00,0,49761,0,0.00,0,0,0,0,47613,50000,716,50000,0,0,0,0,0.00,0.00,0.00,0.00
2016-08-06 16:50:00,0,49382,0,0.00,0,0,0,0,47192,50000,886,49970,0,0,0,0,0.00,0.00,0.00,0.00
2016-08-06 17:00:00,0,50000,0,0.00,0,0,0,0,50000,50000,0,50000,0,0,0,0,0.00,0.00,0.00,0.00
2016-08-06 17:10:00,0,49124,0,0.00,0,0,0,0,44865,50000,1537,49870,0,0,0,0,0.00,0.00,0.00,0.00
2016-08-06 17:20:00,0,49592,0,0.00,0,0,0,0,47639,50000,828,50000,0,0,0,0,0.00,0.00,0.00,0.00
2016-08-06 17:30:00,0,49880,0,0.00,0,0,0,0,48795,50000,362,50000,0,0,0,0,0.00,0.00,0.00,0.00
2016-08-06 17:40:00,0,49925,0,0.00,0,0,0,0,49593,50000,151,50000,0,0,0,0,0.00,0.00,0.00,0.00
2016-08-06 17:50:00,0,50000,0,0.00,0,0,0,0,50000,50000,0,50000,0,0,0,0,0.00,0.00,0.00,0.00
2016-08-06 18:00:00,0,43626,0,0.00,0,0,0,0,11337,50000,12106,50000,0,0,0,0,0.00,0.00,0.00,0.00
2016-08-06 18:10:00,0,50000,0,0.00,0,0,0,0,50000,50000,0,50000,0,0,0,0,0.00,0.00,0.00,0.00
2016-08-06 18:20:00,0,49792,0,0.00,0,0,0,0,48128,50000,558,50000,0,0,0,0,0.00,0.00,0.00,0.00
2016-08-06 18:30:00,0,50000,0,0.00,0,0,0,0,50000,50000,0,50000,0,0,0,0,0.00,0.00,0.00,0.00
2016-08-06 18:40:00,0,50000,0,0.00,0,0,0,0,50000,50000,0,50000,0,0,0,0,0.00,0.00,0.00,0.00
2016-08-06 18:50:00,0,50000,0,0.00,0,0,0,0,50000,50000,0,50000,0,0,0,0,0.00,0.00,0.00,0.00
2016-08-06 19:00:00,0,50000,0,0.00,0,0,0,0,50000,50000,0,50000,0,0,0,0,0.00,0.00,0.00,0.00
2016-08-06 19:10:00,0,50000,0,0.00,0,0,0,0,50000,50000,0,50000,0,0,0,0,0.00,0.00,0.00,0.00
2016-08-06 19:20:00,0,49980,0,0.00,0,0,0,0,49843,50000,48,50000,0,0,0,0,0.00,0.00,0.00,0.00
2016-08-06 19:30:00,0,50000,0,0.00,0,0,0,0,50000,50000,0,50000,0,0,0,0,0.00,0.00,0.00,0.00
2016-08-06 19:40:00,0,50000,0,0.00,0,0,0,0,50000,50000,0,50000,0,0,0,0,0.00,0.00,0.00,0.00
2016-08-06 19:50:00,0,50000,0,0.00,0,0,0,0,50000,50000,0,50000,0,0,0,0,0.00,0.00,0.00,0.00
2016-08-06 20:00:00,0,50000,0,0.00,0,0,0,0,50000,50000,0,50000,0,0,0,0,0.00,0.00,0.00,0.00
2016-08-06 20:10:00,0,50000,0,0.00,0,0,0,0,50000,50000,0,50000,0,0,0,0,0.00,0.00,0.00,0.00
2016-08-06 20:20:00,0,50000,0,0.00,0,0,0,0,50000,50000,0,50000,0,0,0,0,0.00,0.00,0.00,0.00
2016-08-06 20:30:00,0,50000,0,0.00,0,0,0,0,50000,50000,0,50000,0,0,0,0,0.00,0.00,0.00,0.00
2016-08-06 20:40:00,0,50000,0,0.00,0,0,0,0,50000,50000,0,50000,0,0,0,0,0.00,0.00,0.00,0.00
2016-08-06 20:50:00,0,49912,0,0.00,0,0,0,0,49216,50000,234,50000,0,0,0,0,0.00,0.00,0.00,0.00
2016-08-06 21:00:00,0,50000,0,0.00,0,0,0,0,50000,50000,0,50000,0,0,0,0,0.00,0.00,0.00,0.00
2016-08-06 21:10:00,0,50000,0,0.00,0,0,0,0,50000,50000,0,50000,0,0,0,0,0.00,0.00,0.00,0.00
2016-08-06 21:20:00,0,50000,0,0.00,0,0,0,0,50000,50000,0,50000,0,0,0,0,0.00,0.00,0.00,0.00
2016-08-06 21:30:00,0,49857,0,0.00,0,0,0,0,48567,50000,430,50000,0,0,0,0,0.00,0.00,0.00,0.00
2016-08-06 21:40:00,0,50000,0,0.00,0,0,0,0,50000,50000,0,50000,0,0,0,0,0.00,0.00,0.00,0.00
2016-08-06 21:50:00,0,50000,0,0.00,0,0,0,0,50000,50000,0,50000,0,0,0,0,0.00,0.00,0.00,0.00
2016-08-06 22:00:00,0,49814,0,0.00,0,0,0,0,48139,50000,558,50000,0,0,0,0,0.00,0.00,0.00,0.00
2016-08-06 22:10:00,0,50000,0,0.00,0,0,0,0,50000,50000,0,50000,0,0,0,0,0.00,0.00,0.00,0.00
2016-08-06 22:20:00,0,50000,0,0.00,0,0,0,0,50000,50000,0,50000,0,0,0,0,0.00,0.00,0.00,0.00
2016-08-06 22:30:00,0,50000,0,0.00,0,0,0,0,50000,50000,0,50000,0,0,0,0,0.00,0.00,0.00,0.00
2016-08-06 22:40:00,0,50000,0,0.00,0,0,0,0,50000,50000,0,50000,0,0,0,0,0.00,0.00,0.00,0.00
2016-08-06 22:50:00,0,50000,0,0.00,0,0,0,0,50000,50000,0,50000,0,0,0,0,0.00,0.00,0.00,0.00
2016-08-06 23:00:00,0,48497,0,0.00,0,0,0,0,42549,50000,2963,50000,0,0,0,0,0.00,0.00,0.00,0.00
2016-08-06 23:10:00,0,50000,0,0.00,0,0,0,0,50000,50000,0,50000,0,0,0,0,0.00,0.00,0.00,0.00
2016-08-06 23:20:00,0,49952,0,0.00,0,0,0,0,49519,50000,144,50000,0,0,0,0,0.00,0.00,0.00,0.00
2016-08-06 23:30:00,0,50000,0,0.00,0,0,0,0,50000,50000,0,50000,0,0,0,0,0.00,0.00,0.00,0.00
2016-08-06 23:40:00,0,49722,0,0.00,0,0,0,0,47724,50000,683,50000,0,0,0,0,0.00,0.00,0.00,0.00
2016-08-06 23:50:00,0,50000,0,0.00,0,0,0,0,50000,50000,0,50000,0,0,0,0,0.00,0.00,0.00,0.00
